Regional Weather Roundup
Issued by NWS

Home | Current Version | Previous Version | Graphics & Text | Print | Product List | Glossary On
Versions: 1 2 3 4 5 6 7 8 9 10 11 12 13 14 15 16 17 18 19 20 21 22 23 24 25 26 27 28 29 30 31 32 33 34 35 36 37 38 39 40 41 42 43 44 45 46 47 48 49 50
000
ASUS43 KTOP 120908
RWRKS

WEATHER ROUNDUP FOR KANSAS
NATIONAL WEATHER SERVICE GOODLAND KS
300 AM CST FRI FEB 12 2016

NOTE:  "FAIR" INDICATES FEW OR NO CLOUDS BELOW 12,000 FEET WITH NO
SIGNIFICANT WEATHER AND/OR OBSTRUCTIONS TO VISIBILITY.

KSZ001>006-013>018-027>032-041>047-121000-
NORTHWEST KANSAS

CITY           SKY/WX    TMP DP  RH WIND       PRES   REMARKS
GOODLAND       CLOUDY    29  24  82 W7        30.26R
RUSSELL        CLOUDY    33  30  88 N12       30.22R WCI  24
$$

KSZ061>065-074>080-084>089-121000-
SOUTHWEST KANSAS

CITY           SKY/WX    TMP DP  RH WIND       PRES   REMARKS
DODGE CITY     CLOUDY    34  27  75 NW13      30.24R WCI  25
ELKHART          N/A     35  21  56 W8          N/A
GARDEN CITY    CLOUDY    34  28  79 NW10      30.25R WCI  26
GREAT BEND     CLEAR     27  18  69 W3        30.23R
LIBERAL        CLOUDY    34  19  55 NW7       30.25R
PRATT          CLEAR     30  27  89 NW12      30.22R WCI  20
$$

KSZ066>073-081>083-090>101-121000-
SOUTHEAST KANSAS

CITY           SKY/WX    TMP DP  RH WIND       PRES   REMARKS
CHANUTE        CLEAR     28  23  81 NW5       30.18R
COFFEYVILLE    CLEAR     27  22  81 CALM      30.19R
HUTCHINSON     CLOUDY    31  24  75 NW5       30.22R
MEDICINE LODGE   N/A     27  24  89 N7        30.21R
NEWTON         CLEAR     34  23  64 W8        30.21R
PARSONS        CLEAR     24  22  91 CALM      30.19R
WICHITA INTL   PTCLDY    32  25  75 W3        30.20R
WICHITA JABRA  CLEAR     35  27  72 W12       30.19R WCI  27
WICHITA MCCONL CLEAR     33  27  76 W6        30.20R
WINFIELD       CLEAR     26  20  77 CALM      30.21R
$$

KSZ007>012-019>026-033>040-048>060-102>105-121000-
NORTHEAST KANSAS

CITY           SKY/WX    TMP DP  RH WIND       PRES   REMARKS
CONCORDIA      CLOUDY    30  26  85 NW8       30.24R
EMPORIA        CLEAR     27  22  81 NW9       30.18R
LAWRENCE       CLOUDY    27  23  85 CALM      30.20S
MANHATTAN      CLEAR     24  22  91 CALM      30.22R
MARYSVILLE     CLOUDY    27  23  86 N6        30.22R
OLATHE IND     CLOUDY    29  24  82 N5        30.19S
OLATHE EXE     CLOUDY    30  21  69 NE6       30.18S
SALINA         CLOUDY    31  25  78 NW9       30.23R
TOPEKA BILLARD CLEAR     29  21  72 W3        30.21R
TOPEKA FORBES  CLEAR     26  21  81 NW3       30.19R
$$



USA.gov is the U.S. government's official web portal to all federal, state and local government web resources and services.